Find Starlink 37705

NORAD ID: 100273 Int'l Des: 2026-183 Owner: SPXS Country: US Constellation: starlink operational

当前视图

正在加载3D地球...

About Starlink 37705

Starlink 37705 (NORAD 100273) is a starlink constellation satellite launched Aug 11, 2026 by SPXS of US. with a mass of 575.00 kg.

即将过境

Passes for default location (London). Set your location on the main map for personalized predictions.

高度历史

Loading altitude history...

两行轨道根数

1 A0273U 26183B 26254.59653454 -.00916529 00000-0 -69941-2 0 9997
2 A0273 53.1574 301.3956 0000560 106.2439 253.8643 15.74112189 4905
Epoch: Sep 11, 2026 • Age: 27 hours

当前状态

高度 354.8 km
远地点 / 近地点 N/A
速度 7.70 km/s
星下点 -4.23°S, 128.02°W
发射日期 Aug 11, 2026
运行时间 32 days
类型 internet

技术详情

分类 Payload
质量 575.00 kg
干质量 530.00 kg
总质量 575.00 kg
长度 0.30 m
直径 4.10 m
跨度 29.00 m
形状 Box + pan
制造商 SPXS
平台类型 Starlink V2MO
阶段状态 In Orbit
所有者/国家 SPXS/US

Most Searched